Home > Weather > Bucaramanga > Past weeks

Flag for Colombia Past Weather in Bucaramanga, Colombia — Yesterday and Last 2 Weeks

Now
77 °F

Scattered clouds.


Feels Like: 79 °F
Forecast: N/A
Wind: 8 mph from Northwest

Location: Bucaramanga / Palonegro

Current Time: Aug 25, 2016 at 5:17:47 PM

Latest Report: Aug 25, 2016 at 4:00 PM


Visibility: N/A

Pressure: 29.90 "Hg (26.80 "Hg at 956m altitude)

Humidity: 69%

Dew Point: 66 °F

Location of BucaramangaLocation

Past Weather in Bucaramanga — Graph

°F

Bucaramanga Temperature Yesterday

Maximum temperature yesterday: 82 °F (at 3:00 PM)
Minimum temperature yesterday: 64 °F (at 6:00 AM)
Average temperature yesterday: 75 °F

High & Low Weather Summary for the Past Weeks

 TemperatureHumidityPressure
High86 °F (Aug 21, 12:00 PM)100% (Aug 11, 7:00 PM)30.08 "Hg (Aug 11, 7:00 PM)
Low64 °F (Aug 19, 6:00 AM)46% (Aug 21, 12:00 PM)29.86 "Hg (Aug 23, 6:00 AM)
Average74 °F78%29.98 "Hg
* Reported Aug 10 4:00 PM — Aug 25 4:00 PM, Bucaramanga, Weather by CustomWeather, © 2016

Note: Actual official high and low records may vary slightly from our data, if they occured in-between our weather recording intervals... More about our weather records

Advertising

Bucaramanga Weather History for the Previous 24 Hours

Scroll right to see more
 ConditionsComfort  
Time TempWeatherWind HumidityBarometerVisibility
4:00 PM
Thu, Aug 25
77 °FScattered clouds.8 mph69%29.90 "HgN/A
3:00 PM77 °FScattered clouds.7 mph69%29.91 "HgN/A
2:00 PM73 °FDrizzle. Broken clouds.14 mph89%29.92 "HgN/A
1:00 PM77 °FBroken clouds.9 mph74%29.93 "HgN/A
12:00 PM81 °FScattered clouds.9 mph70%29.95 "HgN/A
11:00 AM79 °FScattered clouds.3 mph58%29.98 "HgN/A
10:00 AM77 °FPartly sunny.6 mph65%30.00 "HgN/A
9:00 AM73 °FPartly sunny.9 mph69%30.01 "HgN/A
8:00 AM70 °FPartly sunny.6 mph83%30.01 "HgN/A
7:00 AM68 °FBroken clouds.3 mph88%30.03 "Hg3 mi
6:00 AM68 °FScattered showers. Scattered clouds.2 mph88%30.02 "HgN/A
5:00 AM68 °FPassing clouds.8 mph83%29.99 "HgN/A
4:00 AM68 °FPassing clouds.5 mph88%29.97 "HgN/A
3:00 AM70 °FPassing clouds.9 mph78%29.96 "HgN/A
2:00 AM70 °FPassing clouds.6 mph83%29.97 "HgN/A
1:00 AM70 °FPassing clouds.3 mph88%29.98 "HgN/A
12:00 AM70 °FPassing clouds.2 mph94%30.00 "HgN/A
11:00 PM
Wed, Aug 24
72 °FPassing clouds.7 mph88%30.02 "HgN/A
10:00 PM72 °FPassing clouds.5 mph88%30.01 "HgN/A
9:00 PM72 °FPassing clouds.5 mph88%29.99 "HgN/A
8:00 PM72 °FPassing clouds.3 mph83%29.97 "HgN/A
7:00 PM73 °FPassing clouds.2 mph78%29.95 "HgN/A
6:00 PM75 °FScattered clouds.8 mph74%29.94 "HgN/A
5:00 PM77 °FBroken clouds.5 mph69%29.93 "HgN/A
Weather by CustomWeather, © 2016

See weather overviewHow to use our weather pages